BON349 FAOR-DTNH

Flight info

Callsign BON349
Flight time N/A
Altitude 23000
Route NESAN Q40 EVIPI Q16 ETMIT/N0494F310 UM214 OKLAP/N0494F320 UM214 RAPOL/N0489F340 UM214 ILDOR/N0482F360 UG655 GARIN/N0479F320 G655 SEB/N0473F360 A403 GRT R845 IZD M727 ZAW R845 REXOS
Aircraft B772/H-SDE2E3FGHIJ5LORVWXY/LB1D1

Departure

Time N/A
Airport O.R. Tambo International Airport (FAOR)

Arrival

Time 2026-04-28 19:47
Airport Enfidha - Hammamet International Airport (DTNH)
Time Latitude Longitude Altitude Speed Heading
2026-04-28 15:08 3.38745 21.77818 34916 ft 499 kts 351°
2026-04-28 15:09 3.42151 21.77160 34916 ft 500 kts 350°
2026-04-28 15:09 3.48950 21.75847 34917 ft 500 kts 350°
2026-04-28 15:10 3.55788 21.74525 34920 ft 500 kts 350°
2026-04-28 15:10 3.62601 21.73047 34913 ft 501 kts 347°
2026-04-28 15:11 3.69382 21.71341 34919 ft 502 kts 347°
2026-04-28 15:11 3.76169 21.69620 34916 ft 502 kts 347°
2026-04-28 15:12 3.82966 21.67922 34917 ft 503 kts 347°
2026-04-28 15:12 3.89759 21.66235 34917 ft 503 kts 347°
2026-04-28 15:13 3.96509 21.64559 34918 ft 503 kts 347°
2026-04-28 15:13 4.03303 21.62871 34914 ft 503 kts 347°
2026-04-28 15:14 4.10108 21.61178 34904 ft 503 kts 347°
2026-04-28 15:14 4.16874 21.59495 34908 ft 502 kts 347°
2026-04-28 15:15 4.23663 21.57807 34905 ft 502 kts 347°
2026-04-28 15:15 4.30439 21.56122 34907 ft 501 kts 347°
2026-04-28 15:16 4.37219 21.54436 34907 ft 501 kts 347°
2026-04-28 15:16 4.43948 21.52762 34906 ft 501 kts 347°
2026-04-28 15:17 4.50717 21.51077 34910 ft 500 kts 347°
2026-04-28 15:17 4.57428 21.49407 34910 ft 501 kts 347°
2026-04-28 15:18 4.64198 21.47721 34906 ft 500 kts 347°
2026-04-28 15:18 4.70965 21.46035 34908 ft 500 kts 347°
2026-04-28 15:19 4.77679 21.44362 34909 ft 499 kts 347°
2026-04-28 15:19 4.84425 21.42682 34907 ft 499 kts 347°
2026-04-28 15:20 4.91176 21.40999 34906 ft 499 kts 347°
2026-04-28 15:20 4.97915 21.39319 34909 ft 498 kts 347°
2026-04-28 15:21 5.04611 21.37649 34905 ft 498 kts 347°
2026-04-28 15:21 5.11349 21.35970 34908 ft 498 kts 347°
2026-04-28 15:22 5.18090 21.34290 34902 ft 498 kts 347°
2026-04-28 15:22 5.24821 21.32610 34897 ft 498 kts 347°
2026-04-28 15:23 5.31504 21.30944 34898 ft 498 kts 347°
2026-04-28 15:23 5.38235 21.29264 34900 ft 497 kts 347°
2026-04-28 15:24 5.44968 21.27583 34897 ft 497 kts 347°
2026-04-28 15:24 5.51658 21.25912 34899 ft 497 kts 347°
2026-04-28 15:25 5.58392 21.24231 34895 ft 497 kts 347°
2026-04-28 15:25 5.65075 21.22562 34900 ft 497 kts 347°
2026-04-28 15:26 5.71796 21.20883 34899 ft 497 kts 347°
2026-04-28 15:26 5.72175 21.20788 34899 ft 497 kts 347°
2026-04-28 15:27 5.75283 21.20011 34898 ft 497 kts 347°
2026-04-28 15:27 5.81996 21.18333 34899 ft 497 kts 347°
2026-04-28 15:28 5.86263 21.17266 34900 ft 497 kts 347°
2026-04-28 15:28 5.92942 21.15594 34897 ft 497 kts 347°
2026-04-28 15:29 5.99658 21.13917 34899 ft 496 kts 347°
2026-04-28 15:29 6.06369 21.12238 34896 ft 496 kts 347°
2026-04-28 15:30 6.13068 21.10561 34900 ft 496 kts 347°
2026-04-28 15:30 6.19728 21.08894 34897 ft 496 kts 347°
2026-04-28 15:31 6.26442 21.07213 34900 ft 496 kts 347°
2026-04-28 15:31 6.33152 21.05532 34898 ft 496 kts 347°
2026-04-28 15:32 6.39854 21.03853 34898 ft 496 kts 347°
2026-04-28 15:32 6.46518 21.02184 34898 ft 496 kts 347°
2026-04-28 15:33 6.53233 21.00499 34899 ft 496 kts 347°
2026-04-28 15:33 6.59944 20.98852 34897 ft 496 kts 347°
2026-04-28 15:34 6.66675 20.97268 34898 ft 496 kts 348°
2026-04-28 15:34 6.73358 20.95696 34901 ft 497 kts 347°
2026-04-28 15:35 6.80102 20.94098 34897 ft 497 kts 347°
2026-04-28 15:35 6.90175 20.91702 34898 ft 497 kts 347°
2026-04-28 15:36 6.96911 20.90102 34899 ft 497 kts 347°
2026-04-28 15:36 7.03663 20.88497 34897 ft 497 kts 347°
2026-04-28 15:37 7.10411 20.86892 34900 ft 498 kts 347°
2026-04-28 15:37 7.15979 20.85567 34897 ft 498 kts 347°
2026-04-28 15:38 7.23888 20.83686 34899 ft 498 kts 347°
2026-04-28 15:38 7.30610 20.82093 34890 ft 499 kts 347°
2026-04-28 15:39 7.37380 20.80489 34888 ft 499 kts 347°
2026-04-28 15:39 7.44147 20.78884 34890 ft 499 kts 347°
2026-04-28 15:40 7.48397 20.77875 34889 ft 500 kts 347°
2026-04-28 15:40 7.55176 20.76267 34889 ft 500 kts 347°
2026-04-28 15:41 7.61925 20.74664 34889 ft 501 kts 347°
2026-04-28 15:41 7.68718 20.73050 34889 ft 501 kts 347°
2026-04-28 15:42 7.75509 20.71437 34890 ft 502 kts 347°
2026-04-28 15:42 7.82308 20.69821 34888 ft 502 kts 347°
2026-04-28 15:43 7.89074 20.68211 34891 ft 502 kts 347°
2026-04-28 15:43 7.95888 20.66590 34890 ft 503 kts 347°
2026-04-28 15:44 8.02703 20.64968 34888 ft 503 kts 347°
2026-04-28 15:44 8.09484 20.63352 34889 ft 503 kts 347°
2026-04-28 15:45 8.16309 20.61724 34891 ft 503 kts 347°
2026-04-28 15:45 8.21316 20.60529 34886 ft 503 kts 347°
2026-04-28 15:46 8.26868 20.59203 34883 ft 503 kts 347°
2026-04-28 15:46 8.34790 20.57311 34888 ft 503 kts 347°
2026-04-28 15:47 8.40458 20.55956 34889 ft 503 kts 347°
2026-04-28 15:47 8.47260 20.54331 34890 ft 502 kts 347°
2026-04-28 15:48 8.54074 20.52702 34890 ft 502 kts 347°
2026-04-28 15:48 8.60871 20.51076 34888 ft 502 kts 346°
2026-04-28 15:49 8.67626 20.49460 34891 ft 501 kts 347°
2026-04-28 15:49 8.74423 20.47833 34897 ft 501 kts 347°
2026-04-28 15:50 8.81199 20.46211 34897 ft 500 kts 346°
2026-04-28 15:50 8.87973 20.44588 34900 ft 500 kts 346°
2026-04-28 15:51 8.94704 20.42975 34896 ft 499 kts 346°
2026-04-28 15:51 9.01478 20.41352 34900 ft 499 kts 346°
2026-04-28 15:52 9.08243 20.39729 34900 ft 499 kts 346°
2026-04-28 15:52 9.15031 20.38101 34899 ft 501 kts 346°
2026-04-28 15:53 9.21800 20.36476 34898 ft 503 kts 346°
2026-04-28 15:53 9.28632 20.34836 34885 ft 505 kts 346°
2026-04-28 15:54 9.35494 20.33188 34880 ft 506 kts 346°
2026-04-28 15:54 9.42345 20.31541 34879 ft 506 kts 346°
2026-04-28 15:55 9.49190 20.29895 34877 ft 505 kts 346°
2026-04-28 15:55 9.55984 20.28261 34878 ft 504 kts 346°
2026-04-28 15:56 9.62820 20.26618 34875 ft 504 kts 346°
2026-04-28 15:56 9.69659 20.24973 34879 ft 504 kts 346°
2026-04-28 15:57 9.76496 20.23326 34881 ft 504 kts 346°
2026-04-28 15:57 9.83282 20.21691 34881 ft 504 kts 346°
2026-04-28 15:58 9.90165 20.20033 34878 ft 505 kts 346°
2026-04-28 15:58 9.96964 20.18393 34880 ft 505 kts 346°
2026-04-28 15:59 10.03817 20.16740 34880 ft 505 kts 346°
2026-04-28 15:59 10.10663 20.15088 34881 ft 505 kts 346°
2026-04-28 16:00 10.17459 20.13448 34880 ft 505 kts 346°
2026-04-28 16:00 10.20893 20.12618 34997 ft 507 kts 346°
2026-04-28 16:00 10.24315 20.11792 35229 ft 505 kts 346°
2026-04-28 16:01 10.27731 20.10966 35610 ft 500 kts 346°
2026-04-28 16:01 10.31105 20.10151 35813 ft 500 kts 346°
2026-04-28 16:01 10.37898 20.08509 35881 ft 502 kts 346°
2026-04-28 16:02 10.44672 20.06871 35883 ft 498 kts 346°
2026-04-28 16:02 10.51399 20.05243 35882 ft 495 kts 346°
2026-04-28 16:03 10.58097 20.03621 35881 ft 494 kts 346°
2026-04-28 16:03 10.64758 20.02009 35881 ft 495 kts 346°
2026-04-28 16:04 10.71480 20.00380 35874 ft 496 kts 346°
2026-04-28 16:04 10.78212 19.98748 35877 ft 497 kts 346°
2026-04-28 16:05 10.84952 19.97114 35879 ft 497 kts 346°
2026-04-28 16:05 10.91645 19.95490 35876 ft 497 kts 346°
2026-04-28 16:06 10.98370 19.93858 35868 ft 496 kts 346°
2026-04-28 16:06 11.05097 19.92224 35879 ft 495 kts 346°
2026-04-28 16:07 11.11757 19.90606 35880 ft 494 kts 346°
2026-04-28 16:08 11.21791 19.88167 35873 ft 492 kts 346°
2026-04-28 16:08 11.28461 19.86544 35865 ft 491 kts 346°
2026-04-28 16:09 11.38400 19.84125 35880 ft 491 kts 346°
2026-04-28 16:10 11.48382 19.81693 35861 ft 491 kts 346°
2026-04-28 16:10 11.58375 19.79257 35862 ft 492 kts 346°
2026-04-28 16:11 11.71728 19.76251 35880 ft 492 kts 349°
2026-04-28 16:12 11.81828 19.74339 35880 ft 492 kts 349°
2026-04-28 16:13 11.91877 19.72366 35880 ft 492 kts 348°
2026-04-28 16:14 12.05323 19.69688 35873 ft 492 kts 348°
2026-04-28 16:15 12.18740 19.67018 35881 ft 491 kts 348°
2026-04-28 16:15 12.25451 19.65683 35881 ft 491 kts 348°
2026-04-28 16:16 12.35492 19.63683 35882 ft 491 kts 348°
2026-04-28 16:17 12.45572 19.61673 35880 ft 491 kts 348°
2026-04-28 16:17 12.52289 19.60333 35883 ft 491 kts 348°
2026-04-28 16:18 12.58963 19.59001 35879 ft 491 kts 348°
2026-04-28 16:18 12.65672 19.57661 35881 ft 490 kts 348°
2026-04-28 16:19 12.72374 19.56322 35883 ft 490 kts 348°
2026-04-28 16:19 12.79085 19.54981 35882 ft 490 kts 348°
2026-04-28 16:20 12.85746 19.53648 35880 ft 490 kts 348°
2026-04-28 16:20 12.92439 19.52308 35883 ft 490 kts 348°
2026-04-28 16:21 12.99136 19.50967 35880 ft 490 kts 348°
2026-04-28 16:21 13.05836 19.49625 35881 ft 490 kts 348°
2026-04-28 16:22 13.12496 19.48291 35881 ft 490 kts 348°
2026-04-28 16:22 13.19194 19.46948 35869 ft 490 kts 348°
2026-04-28 16:23 13.25880 19.45606 35880 ft 489 kts 348°
2026-04-28 16:23 13.32567 19.44264 35883 ft 489 kts 348°
2026-04-28 16:24 13.39250 19.42921 35864 ft 489 kts 348°
2026-04-28 16:24 13.45897 19.41585 35880 ft 489 kts 348°
2026-04-28 16:25 13.52585 19.40239 35882 ft 489 kts 348°
2026-04-28 16:25 13.59280 19.38892 35881 ft 489 kts 348°
2026-04-28 16:26 13.65965 19.37546 35880 ft 489 kts 348°
2026-04-28 16:26 13.72607 19.36207 35875 ft 489 kts 348°
2026-04-28 16:27 13.79302 19.34857 35866 ft 489 kts 348°
2026-04-28 16:28 13.89288 19.32842 35874 ft 489 kts 348°
2026-04-28 16:28 13.95974 19.31493 35872 ft 489 kts 348°
2026-04-28 16:29 14.06013 19.29466 35875 ft 489 kts 348°
2026-04-28 16:30 14.16002 19.27448 35873 ft 488 kts 348°
2026-04-28 16:30 14.21549 19.26326 35879 ft 488 kts 348°
2026-04-28 16:31 14.29308 19.24756 35879 ft 488 kts 348°
2026-04-28 16:31 14.35970 19.23407 35879 ft 488 kts 348°
2026-04-28 16:32 14.41510 19.22285 35876 ft 488 kts 348°
2026-04-28 16:32 14.51485 19.20261 35871 ft 488 kts 348°
2026-04-28 16:33 14.57067 19.19129 35862 ft 488 kts 348°
2026-04-28 16:33 14.64832 19.17552 35876 ft 488 kts 347°
2026-04-28 16:34 14.71493 19.16199 35869 ft 488 kts 347°
2026-04-28 16:34 14.78153 19.14845 35874 ft 488 kts 347°
2026-04-28 16:35 14.84815 19.13490 35880 ft 488 kts 347°
2026-04-28 16:35 14.91439 19.12142 35876 ft 487 kts 347°
2026-04-28 16:36 14.98106 19.10783 35863 ft 487 kts 347°
2026-04-28 16:36 15.04760 19.09425 35866 ft 487 kts 347°
2026-04-28 16:37 15.11422 19.08066 35880 ft 487 kts 347°
2026-04-28 16:38 15.21381 19.06032 35870 ft 487 kts 347°
2026-04-28 16:38 15.28002 19.04678 35867 ft 487 kts 347°
2026-04-28 16:39 15.34663 19.03316 35875 ft 487 kts 347°
2026-04-28 16:39 15.41331 19.01951 35862 ft 487 kts 347°
2026-04-28 16:40 15.47973 19.00591 35865 ft 487 kts 347°
2026-04-28 16:40 15.54575 18.99237 35864 ft 487 kts 347°
2026-04-28 16:41 15.61227 18.97873 35867 ft 487 kts 347°
2026-04-28 16:41 15.67879 18.96508 35852 ft 487 kts 347°
2026-04-28 16:42 15.74524 18.95144 35855 ft 487 kts 347°
2026-04-28 16:42 15.81176 18.93777 35852 ft 486 kts 347°
2026-04-28 16:43 15.87811 18.92412 35855 ft 486 kts 347°
2026-04-28 16:43 15.94455 18.91045 35858 ft 486 kts 347°
2026-04-28 16:44 16.01095 18.89677 35866 ft 487 kts 347°
2026-04-28 16:44 16.07694 18.88320 35858 ft 486 kts 346°
2026-04-28 16:45 16.14327 18.86950 35856 ft 485 kts 346°
2026-04-28 16:45 16.20942 18.85586 35868 ft 484 kts 346°
2026-04-28 16:46 16.27563 18.84219 35861 ft 484 kts 346°
2026-04-28 16:46 16.34172 18.82853 35854 ft 484 kts 346°
2026-04-28 16:47 16.40737 18.81496 35862 ft 484 kts 346°
2026-04-28 16:47 16.47349 18.80127 35857 ft 484 kts 346°
2026-04-28 16:48 16.53958 18.78759 35871 ft 484 kts 346°
2026-04-28 16:48 16.60570 18.77389 35867 ft 484 kts 346°
2026-04-28 16:49 16.67183 18.76018 35861 ft 484 kts 346°
2026-04-28 16:49 16.73779 18.74649 35859 ft 483 kts 346°
2026-04-28 16:50 16.80351 18.73285 35867 ft 483 kts 346°
2026-04-28 16:50 16.86955 18.71913 35862 ft 483 kts 346°
2026-04-28 16:51 16.93509 18.70550 35860 ft 483 kts 346°
2026-04-28 16:51 17.00099 18.69179 35863 ft 482 kts 346°
2026-04-28 16:52 17.06685 18.67808 35866 ft 482 kts 346°
2026-04-28 16:52 17.13270 18.66436 35856 ft 481 kts 346°
2026-04-28 16:53 17.19844 18.65065 35860 ft 481 kts 346°
2026-04-28 16:53 17.26373 18.63703 35883 ft 480 kts 346°
2026-04-28 16:54 17.32936 18.62333 35881 ft 480 kts 346°
2026-04-28 16:54 17.39498 18.60962 35882 ft 480 kts 346°
2026-04-28 16:55 17.46059 18.59589 35889 ft 480 kts 346°
2026-04-28 16:55 17.52572 18.58225 35888 ft 480 kts 345°
2026-04-28 16:56 17.59123 18.56853 35889 ft 479 kts 345°
2026-04-28 16:56 17.65665 18.55482 35888 ft 479 kts 345°
2026-04-28 16:57 17.72179 18.54116 35892 ft 479 kts 345°
2026-04-28 16:57 17.78721 18.52743 35887 ft 479 kts 345°
2026-04-28 16:58 17.85256 18.51370 35891 ft 479 kts 345°
2026-04-28 16:58 17.91796 18.49995 35888 ft 479 kts 345°
2026-04-28 16:59 17.98339 18.48619 35890 ft 479 kts 345°
2026-04-28 16:59 18.04840 18.47251 35892 ft 478 kts 345°
2026-04-28 17:00 18.11372 18.45875 35892 ft 478 kts 345°
2026-04-28 17:00 18.17874 18.44503 35899 ft 478 kts 345°
2026-04-28 17:01 18.24392 18.43127 35900 ft 477 kts 345°
2026-04-28 17:01 18.30921 18.41749 35896 ft 477 kts 345°
2026-04-28 17:02 18.37439 18.40371 35900 ft 477 kts 345°
2026-04-28 17:02 18.43910 18.39003 35898 ft 477 kts 345°
2026-04-28 17:03 18.53700 18.36931 35899 ft 477 kts 345°
2026-04-28 17:03 18.60215 18.35550 35899 ft 477 kts 345°
2026-04-28 17:04 18.69938 18.33487 35906 ft 477 kts 344°
2026-04-28 17:05 18.79710 18.31412 35908 ft 476 kts 344°
2026-04-28 17:06 18.89426 18.29346 35907 ft 476 kts 344°
2026-04-28 17:06 18.99183 18.27270 35906 ft 476 kts 344°
2026-04-28 17:07 19.05645 18.25893 35914 ft 476 kts 344°
2026-04-28 17:07 19.12135 18.24508 35917 ft 476 kts 344°
2026-04-28 17:08 19.18627 18.23123 35916 ft 476 kts 343°
2026-04-28 17:08 19.25125 18.21735 35918 ft 475 kts 343°
2026-04-28 17:09 19.31616 18.20349 35915 ft 475 kts 343°
2026-04-28 17:09 19.38054 18.18971 35916 ft 474 kts 343°
2026-04-28 17:10 19.44532 18.17584 35931 ft 474 kts 343°
2026-04-28 17:10 19.50989 18.16200 35927 ft 473 kts 343°
2026-04-28 17:11 19.57459 18.14813 35926 ft 473 kts 343°
2026-04-28 17:11 19.63872 18.13435 35923 ft 473 kts 343°
2026-04-28 17:12 19.70317 18.12051 35923 ft 473 kts 343°
2026-04-28 17:12 19.76787 18.10660 35933 ft 473 kts 343°
2026-04-28 17:13 19.83211 18.09277 35931 ft 473 kts 343°
2026-04-28 17:13 19.89675 18.07886 35933 ft 473 kts 343°
2026-04-28 17:14 19.96152 18.06489 35937 ft 473 kts 343°
2026-04-28 17:14 20.02605 18.05097 35938 ft 473 kts 343°
2026-04-28 17:15 20.09030 18.03710 35955 ft 473 kts 343°
2026-04-28 17:15 20.15452 18.02173 35957 ft 469 kts 338°
2026-04-28 17:16 20.21473 17.99629 35961 ft 463 kts 330°
2026-04-28 17:16 20.26340 17.97203 35954 ft 464 kts 329°
2026-04-28 17:17 20.33140 17.93831 35957 ft 463 kts 330°
2026-04-28 17:17 20.38996 17.90949 35965 ft 462 kts 330°
2026-04-28 17:18 20.43862 17.88561 35966 ft 462 kts 330°
2026-04-28 17:18 20.49714 17.85687 35961 ft 462 kts 330°
2026-04-28 17:19 20.55561 17.82813 35963 ft 462 kts 330°
2026-04-28 17:19 20.61401 17.79940 35963 ft 461 kts 329°
2026-04-28 17:20 20.67201 17.77084 35979 ft 461 kts 329°
2026-04-28 17:20 20.73039 17.74204 35976 ft 462 kts 329°
2026-04-28 17:21 20.78854 17.71337 35968 ft 461 kts 329°
2026-04-28 17:22 20.87580 17.67030 35977 ft 460 kts 329°
2026-04-28 17:22 20.93391 17.64157 35977 ft 459 kts 329°
2026-04-28 17:23 21.02055 17.59868 35980 ft 458 kts 329°
2026-04-28 17:23 21.07855 17.56994 35986 ft 458 kts 329°
2026-04-28 17:24 21.13648 17.54122 35998 ft 458 kts 329°
2026-04-28 17:24 21.19389 17.51273 35998 ft 457 kts 329°
2026-04-28 17:25 21.28057 17.46968 36005 ft 457 kts 329°
2026-04-28 17:26 21.33823 17.44099 36010 ft 456 kts 329°
2026-04-28 17:26 21.39582 17.41231 36014 ft 457 kts 328°
2026-04-28 17:27 21.45329 17.38369 36011 ft 457 kts 328°
2026-04-28 17:27 21.51102 17.35490 36007 ft 457 kts 329°
2026-04-28 17:28 21.56859 17.32617 36023 ft 456 kts 328°
2026-04-28 17:28 21.65468 17.28315 36017 ft 456 kts 328°
2026-04-28 17:29 21.71228 17.25433 36016 ft 456 kts 328°
2026-04-28 17:30 21.79858 17.21113 36032 ft 455 kts 328°
2026-04-28 17:30 21.88446 17.16805 36029 ft 456 kts 328°
2026-04-28 17:31 21.97072 17.12473 36030 ft 455 kts 328°
2026-04-28 17:32 22.05669 17.08125 36035 ft 453 kts 327°
2026-04-28 17:32 22.11336 17.05229 36028 ft 452 kts 327°
2026-04-28 17:33 22.17011 17.02327 36036 ft 450 kts 327°
2026-04-28 17:33 22.21718 16.99919 36030 ft 449 kts 327°
2026-04-28 17:34 22.28280 16.96559 36055 ft 449 kts 327°
2026-04-28 17:34 22.33937 16.93661 36056 ft 450 kts 327°
2026-04-28 17:35 22.39608 16.90753 36034 ft 451 kts 327°
2026-04-28 17:35 22.45261 16.87852 36055 ft 451 kts 327°
2026-04-28 17:36 22.50943 16.84935 36057 ft 451 kts 327°
2026-04-28 17:36 22.56592 16.82031 36056 ft 451 kts 327°
2026-04-28 17:37 22.62266 16.79111 36046 ft 451 kts 327°
2026-04-28 17:37 22.67939 16.76191 36056 ft 451 kts 327°
2026-04-28 17:38 22.73603 16.73271 36065 ft 450 kts 327°
2026-04-28 17:38 22.79215 16.70375 36067 ft 449 kts 327°
2026-04-28 17:39 22.84873 16.67454 36058 ft 449 kts 327°
2026-04-28 17:40 22.93326 16.63083 36062 ft 448 kts 327°
2026-04-28 17:40 22.98924 16.60185 36070 ft 447 kts 327°
2026-04-28 17:41 23.04552 16.57269 36071 ft 447 kts 327°
2026-04-28 17:41 23.10172 16.54354 36075 ft 447 kts 327°
2026-04-28 17:42 23.15758 16.51456 36071 ft 447 kts 327°
2026-04-28 17:42 23.21364 16.48543 36080 ft 446 kts 327°
2026-04-28 17:43 23.26972 16.45625 36084 ft 446 kts 327°
2026-04-28 17:43 23.32575 16.42708 36084 ft 446 kts 327°
2026-04-28 17:44 23.38181 16.39788 36081 ft 446 kts 327°
2026-04-28 17:44 23.43781 16.36868 36090 ft 445 kts 327°
2026-04-28 17:45 23.49336 16.33969 36096 ft 445 kts 327°
2026-04-28 17:45 23.54921 16.31050 36090 ft 445 kts 327°
2026-04-28 17:46 23.60512 16.28126 36098 ft 445 kts 326°
2026-04-28 17:46 23.66100 16.25200 36100 ft 445 kts 326°
2026-04-28 17:47 23.71648 16.22294 36101 ft 444 kts 326°
2026-04-28 17:47 23.77234 16.19364 36103 ft 444 kts 326°
2026-04-28 17:48 23.82814 16.16435 36101 ft 444 kts 326°
2026-04-28 17:48 23.88349 16.13526 36101 ft 444 kts 326°
2026-04-28 17:49 23.93933 16.10589 36110 ft 444 kts 326°
2026-04-28 17:49 23.99463 16.07677 36121 ft 443 kts 326°
2026-04-28 17:50 24.05020 16.04749 36123 ft 443 kts 326°
2026-04-28 17:50 24.10582 16.01814 36133 ft 443 kts 326°
2026-04-28 17:51 24.16148 15.98874 36130 ft 444 kts 326°
2026-04-28 17:51 24.21689 15.95947 36141 ft 444 kts 326°
2026-04-28 17:52 24.27260 15.92999 36132 ft 444 kts 326°
2026-04-28 17:52 24.35611 15.88576 36128 ft 444 kts 326°
2026-04-28 17:53 24.41138 15.85644 36124 ft 444 kts 326°
2026-04-28 17:53 24.46724 15.82677 36409 ft 446 kts 326°
2026-04-28 17:54 24.49514 15.81196 36666 ft 444 kts 326°
2026-04-28 17:54 24.52294 15.79720 36947 ft 442 kts 326°
2026-04-28 17:54 24.55028 15.78268 37252 ft 439 kts 326°
2026-04-28 17:54 24.57783 15.76803 37494 ft 438 kts 326°
2026-04-28 17:55 24.60526 15.75342 37699 ft 438 kts 326°
2026-04-28 17:55 24.63262 15.73885 37958 ft 435 kts 326°
2026-04-28 17:55 24.65991 15.72429 38059 ft 436 kts 326°
2026-04-28 17:55 24.68734 15.70965 38108 ft 436 kts 326°
2026-04-28 17:56 24.74140 15.68083 38122 ft 431 kts 326°
2026-04-28 17:56 24.79533 15.65201 38128 ft 429 kts 326°
2026-04-28 17:57 24.84905 15.62331 38130 ft 428 kts 326°
2026-04-28 17:57 24.90280 15.59474 38131 ft 428 kts 326°
2026-04-28 17:58 24.95627 15.56633 38132 ft 429 kts 326°
2026-04-28 17:58 25.01014 15.53766 38147 ft 429 kts 326°
2026-04-28 17:59 25.06401 15.50893 38133 ft 430 kts 325°
2026-04-28 17:59 25.11751 15.48039 38139 ft 430 kts 325°
2026-04-28 18:00 25.17153 15.45153 38133 ft 430 kts 325°
2026-04-28 18:00 25.22547 15.42269 38132 ft 430 kts 325°
2026-04-28 18:01 25.27931 15.39388 38149 ft 430 kts 325°
2026-04-28 18:01 25.33280 15.36523 38150 ft 429 kts 325°
2026-04-28 18:02 25.38659 15.33639 38133 ft 428 kts 325°
2026-04-28 18:02 25.44024 15.30759 38133 ft 428 kts 325°
2026-04-28 18:03 25.49379 15.27882 38132 ft 427 kts 325°
2026-04-28 18:03 25.54700 15.25020 38151 ft 427 kts 325°
2026-04-28 18:04 25.60049 15.22139 38148 ft 427 kts 325°
2026-04-28 18:04 25.65367 15.19273 38150 ft 427 kts 325°
2026-04-28 18:05 25.69844 15.16859 38149 ft 427 kts 325°
2026-04-28 18:05 25.75158 15.13989 38152 ft 427 kts 325°
2026-04-28 18:06 25.80494 15.11104 38147 ft 427 kts 325°
2026-04-28 18:06 25.85847 15.08208 38154 ft 427 kts 325°
2026-04-28 18:07 25.91193 15.05313 38142 ft 427 kts 325°
2026-04-28 18:07 25.96518 15.02427 38150 ft 428 kts 325°
2026-04-28 18:08 26.01889 14.99511 38145 ft 429 kts 325°
2026-04-28 18:08 26.07261 14.96592 38152 ft 430 kts 324°
2026-04-28 18:09 26.12646 14.93664 38140 ft 431 kts 324°
2026-04-28 18:09 26.18007 14.90746 38151 ft 431 kts 324°
2026-04-28 18:10 26.23409 14.87804 38154 ft 431 kts 324°
2026-04-28 18:10 26.28795 14.84866 38142 ft 431 kts 324°
2026-04-28 18:11 26.34184 14.81923 38154 ft 430 kts 324°
2026-04-28 18:11 26.39534 14.78999 38154 ft 430 kts 324°
2026-04-28 18:12 26.44905 14.76061 38161 ft 429 kts 324°
2026-04-28 18:12 26.50269 14.73122 38153 ft 429 kts 324°
2026-04-28 18:13 26.55626 14.70185 38159 ft 429 kts 324°
2026-04-28 18:13 26.60984 14.67244 38158 ft 429 kts 324°
2026-04-28 18:14 26.66308 14.64318 38147 ft 429 kts 324°
2026-04-28 18:14 26.71678 14.61364 38152 ft 429 kts 324°
2026-04-28 18:15 26.77008 14.58429 38154 ft 428 kts 324°
2026-04-28 18:15 26.82356 14.55481 38160 ft 428 kts 324°
2026-04-28 18:16 26.87701 14.52530 38161 ft 428 kts 324°
2026-04-28 18:16 26.93053 14.49574 38163 ft 428 kts 324°
2026-04-28 18:17 26.98424 14.46735 38159 ft 434 kts 329°
2026-04-28 18:17 27.04297 14.44744 38153 ft 446 kts 337°
2026-04-28 18:18 27.10377 14.43302 38167 ft 447 kts 338°
2026-04-28 18:18 27.15439 14.42102 38150 ft 447 kts 337°
2026-04-28 18:19 27.22510 14.40391 38161 ft 446 kts 337°
2026-04-28 18:19 27.28588 14.38908 38148 ft 446 kts 337°
2026-04-28 18:20 27.34658 14.37424 38139 ft 446 kts 337°
2026-04-28 18:20 27.40708 14.35944 38152 ft 445 kts 337°
2026-04-28 18:21 27.46773 14.34458 38133 ft 445 kts 337°
2026-04-28 18:21 27.52833 14.32965 38134 ft 445 kts 337°
2026-04-28 18:22 27.58835 14.31449 38134 ft 445 kts 336°
2026-04-28 18:22 27.64885 14.29911 38129 ft 445 kts 337°
2026-04-28 18:23 27.70950 14.28375 38129 ft 445 kts 337°
2026-04-28 18:23 27.76996 14.26844 38121 ft 445 kts 337°
2026-04-28 18:24 27.82018 14.25571 38120 ft 445 kts 336°
2026-04-28 18:24 27.89066 14.23783 38115 ft 445 kts 336°
2026-04-28 18:25 27.95135 14.22236 38115 ft 446 kts 336°
2026-04-28 18:26 28.04194 14.19934 38108 ft 447 kts 337°
2026-04-28 18:26 28.10273 14.18383 38106 ft 447 kts 336°
2026-04-28 18:27 28.16337 14.16832 38097 ft 445 kts 337°
2026-04-28 18:27 28.22355 14.15299 38099 ft 445 kts 337°
2026-04-28 18:28 28.28402 14.13756 38095 ft 445 kts 336°
2026-04-28 18:28 28.34454 14.12206 38094 ft 445 kts 337°
2026-04-28 18:29 28.40511 14.10650 38087 ft 446 kts 337°
2026-04-28 18:29 28.46529 14.09105 38082 ft 446 kts 337°
2026-04-28 18:30 28.52583 14.07550 38083 ft 445 kts 337°
2026-04-28 18:30 28.58631 14.05995 38077 ft 445 kts 337°
2026-04-28 18:31 28.64681 14.04434 38076 ft 445 kts 337°
2026-04-28 18:31 28.70697 14.02882 38072 ft 446 kts 337°
2026-04-28 18:32 28.76758 14.01319 38063 ft 446 kts 338°
2026-04-28 18:32 28.82811 13.99756 38068 ft 445 kts 338°
2026-04-28 18:33 28.88831 13.98197 38066 ft 446 kts 338°
2026-04-28 18:33 28.94894 13.96623 38052 ft 446 kts 338°
2026-04-28 18:34 29.00963 13.95049 38056 ft 446 kts 338°
2026-04-28 18:34 29.06997 13.93485 38052 ft 446 kts 338°
2026-04-28 18:35 29.13074 13.91903 38045 ft 447 kts 338°
2026-04-28 18:35 29.19106 13.90332 38048 ft 446 kts 338°
2026-04-28 18:36 29.25172 13.88751 38038 ft 446 kts 338°
2026-04-28 18:36 29.31240 13.87166 38036 ft 446 kts 338°
2026-04-28 18:37 29.37266 13.85592 38037 ft 446 kts 339°
2026-04-28 18:37 29.43323 13.84008 38032 ft 446 kts 339°
2026-04-28 18:38 29.49349 13.82430 38024 ft 446 kts 339°
2026-04-28 18:38 29.55395 13.80843 38032 ft 446 kts 339°
2026-04-28 18:39 29.61448 13.79254 38022 ft 445 kts 339°
2026-04-28 18:39 29.67505 13.77662 38018 ft 445 kts 339°
2026-04-28 18:40 29.73518 13.76079 38017 ft 445 kts 339°
2026-04-28 18:40 29.79562 13.74485 38014 ft 445 kts 339°
2026-04-28 18:41 29.85604 13.72890 38009 ft 445 kts 339°
2026-04-28 18:41 29.91605 13.71305 38009 ft 445 kts 339°
2026-04-28 18:42 29.97654 13.69704 38003 ft 445 kts 339°
2026-04-28 18:42 30.03706 13.68100 38001 ft 445 kts 339°
2026-04-28 18:43 30.09742 13.66500 38000 ft 445 kts 339°
2026-04-28 18:43 30.15742 13.64907 37996 ft 445 kts 339°
2026-04-28 18:44 30.21784 13.63300 37993 ft 445 kts 339°
2026-04-28 18:44 30.30840 13.60887 37991 ft 444 kts 339°
2026-04-28 18:45 30.36863 13.59277 37990 ft 443 kts 338°
2026-04-28 18:45 30.42587 13.57000 37981 ft 432 kts 328°
2026-04-28 18:46 30.48026 13.54032 37982 ft 433 kts 327°
2026-04-28 18:46 30.53492 13.51054 37986 ft 434 kts 328°
2026-04-28 18:47 30.58972 13.48086 37983 ft 435 kts 328°
2026-04-28 18:47 30.64479 13.45112 37979 ft 436 kts 328°
2026-04-28 18:48 30.69949 13.42154 37966 ft 436 kts 328°
2026-04-28 18:48 30.75456 13.39174 37966 ft 436 kts 328°
2026-04-28 18:49 30.79137 13.37179 37961 ft 436 kts 328°
2026-04-28 18:49 30.86458 13.33206 37980 ft 436 kts 328°
2026-04-28 18:50 30.91925 13.30235 37971 ft 436 kts 328°
2026-04-28 18:50 30.97426 13.27242 37954 ft 436 kts 328°
2026-04-28 18:51 31.02925 13.24247 37979 ft 435 kts 328°
2026-04-28 18:51 31.08421 13.21248 37978 ft 435 kts 328°
2026-04-28 18:52 31.13871 13.18271 37964 ft 435 kts 328°
2026-04-28 18:52 31.19348 13.15275 37958 ft 435 kts 328°
2026-04-28 18:53 31.23938 13.12761 37965 ft 435 kts 328°
2026-04-28 18:53 31.30310 13.09267 37961 ft 435 kts 328°
2026-04-28 18:54 31.34868 13.06764 37972 ft 435 kts 328°
2026-04-28 18:54 31.40371 13.03740 37955 ft 436 kts 328°
2026-04-28 18:55 31.45949 13.00982 37952 ft 439 kts 331°
2026-04-28 18:55 31.51653 12.98382 37951 ft 440 kts 331°
2026-04-28 18:56 31.57348 12.95749 37951 ft 440 kts 331°
2026-04-28 18:56 31.63026 12.93075 37956 ft 440 kts 331°
2026-04-28 18:57 31.68714 12.90379 37948 ft 439 kts 331°
2026-04-28 18:57 31.74386 12.87686 37950 ft 439 kts 330°
2026-04-28 18:58 31.80023 12.85007 37948 ft 440 kts 330°
2026-04-28 18:58 31.85703 12.82305 37946 ft 440 kts 330°
2026-04-28 18:59 31.91388 12.79597 37940 ft 440 kts 330°
2026-04-28 18:59 31.97068 12.76888 37944 ft 441 kts 330°
2026-04-28 19:00 32.02729 12.74184 37939 ft 441 kts 330°
2026-04-28 19:00 32.08427 12.71459 37945 ft 441 kts 330°
2026-04-28 19:01 32.14138 12.68724 37943 ft 442 kts 330°
2026-04-28 19:01 32.19811 12.66006 37941 ft 443 kts 330°
2026-04-28 19:02 32.25536 12.63264 37940 ft 443 kts 330°
2026-04-28 19:02 32.31254 12.60520 37950 ft 443 kts 330°
2026-04-28 19:03 32.36941 12.57786 37949 ft 444 kts 330°
2026-04-28 19:03 32.42674 12.55027 37942 ft 444 kts 330°
2026-04-28 19:04 32.48404 12.52265 37932 ft 444 kts 330°
2026-04-28 19:04 32.54087 12.49522 37933 ft 444 kts 330°
2026-04-28 19:05 32.59821 12.46750 37931 ft 444 kts 330°
2026-04-28 19:05 32.63604 12.44919 37939 ft 444 kts 330°
2026-04-28 19:06 32.68228 12.42679 37933 ft 444 kts 330°
2026-04-28 19:06 32.74883 12.39452 37935 ft 444 kts 330°
2026-04-28 19:07 32.80619 12.36666 37940 ft 445 kts 330°
2026-04-28 19:07 32.86353 12.33878 37937 ft 445 kts 330°
2026-04-28 19:08 32.92084 12.31086 37935 ft 445 kts 330°
2026-04-28 19:08 32.97827 12.28284 37940 ft 445 kts 330°
2026-04-28 19:09 33.03521 12.25503 37943 ft 445 kts 330°
2026-04-28 19:09 33.09263 12.22694 37951 ft 446 kts 330°
2026-04-28 19:10 33.15012 12.19877 37944 ft 447 kts 330°
2026-04-28 19:10 33.20778 12.17047 37950 ft 447 kts 329°
2026-04-28 19:11 33.26539 12.14218 37941 ft 448 kts 329°
2026-04-28 19:11 33.32018 12.10920 37943 ft 440 kts 322°
2026-04-28 19:12 33.37342 12.07268 37944 ft 441 kts 322°
2026-04-28 19:12 33.42677 12.03621 37951 ft 442 kts 322°
2026-04-28 19:13 33.48040 11.99968 37946 ft 443 kts 322°
2026-04-28 19:13 33.53375 11.96337 37944 ft 444 kts 322°
2026-04-28 19:14 33.58758 11.92669 37945 ft 445 kts 322°
2026-04-28 19:14 33.64150 11.88989 37944 ft 445 kts 322°
2026-04-28 19:15 33.69550 11.85299 37940 ft 446 kts 322°
2026-04-28 19:15 33.74031 11.82231 37947 ft 446 kts 322°
2026-04-28 19:16 33.80336 11.77910 37941 ft 446 kts 322°
2026-04-28 19:16 33.85697 11.74229 37952 ft 446 kts 322°
2026-04-28 19:17 33.91085 11.70525 37940 ft 445 kts 322°
2026-04-28 19:17 33.96465 11.66821 37950 ft 445 kts 322°
2026-04-28 19:18 34.01836 11.63117 37962 ft 445 kts 322°
2026-04-28 19:18 34.07215 11.59402 37948 ft 445 kts 322°
2026-04-28 19:19 34.11680 11.56314 37951 ft 445 kts 322°
2026-04-28 19:19 34.17920 11.51991 37954 ft 445 kts 322°
2026-04-28 19:20 34.23299 11.48260 37952 ft 445 kts 322°
2026-04-28 19:20 34.28682 11.44520 37948 ft 446 kts 322°
2026-04-28 19:21 34.34007 11.40823 37529 ft 436 kts 322°
2026-04-28 19:21 34.36644 11.38988 36790 ft 439 kts 321°
2026-04-28 19:21 34.39299 11.37131 35968 ft 443 kts 321°
2026-04-28 19:22 34.41982 11.35254 35230 ft 446 kts 321°
2026-04-28 19:22 34.43765 11.34009 34811 ft 445 kts 321°
2026-04-28 19:22 34.47310 11.31534 34119 ft 442 kts 321°
2026-04-28 19:22 34.50004 11.29655 33617 ft 439 kts 321°
2026-04-28 19:23 34.52603 11.27840 33130 ft 436 kts 321°
2026-04-28 19:23 34.55226 11.26006 32615 ft 434 kts 321°
2026-04-28 19:23 34.57830 11.24182 32120 ft 431 kts 321°
2026-04-28 19:23 34.60422 11.22365 31624 ft 428 kts 321°
2026-04-28 19:24 34.62997 11.20560 31177 ft 425 kts 321°
2026-04-28 19:24 34.65543 11.18774 30759 ft 420 kts 321°
2026-04-28 19:24 34.68065 11.17002 30308 ft 416 kts 321°
2026-04-28 19:24 34.70565 11.15245 29822 ft 413 kts 321°
2026-04-28 19:25 34.73042 11.13502 29354 ft 410 kts 321°
2026-04-28 19:25 34.75499 11.11771 28849 ft 406 kts 321°
2026-04-28 19:25 34.77932 11.10056 28339 ft 403 kts 322°
2026-04-28 19:25 34.80348 11.08351 27815 ft 400 kts 322°
2026-04-28 19:26 34.82749 11.06655 27310 ft 397 kts 322°
2026-04-28 19:26 34.85100 11.04995 26826 ft 394 kts 323°
2026-04-28 19:26 34.87469 11.03320 26360 ft 392 kts 323°
2026-04-28 19:26 34.89815 11.01660 25995 ft 388 kts 324°
2026-04-28 19:27 34.92143 11.00013 25521 ft 385 kts 324°
2026-04-28 19:27 34.94450 10.98379 25026 ft 382 kts 324°
2026-04-28 19:27 34.96746 10.96752 24530 ft 380 kts 324°
2026-04-28 19:27 34.99025 10.95136 24046 ft 378 kts 325°
2026-04-28 19:28 35.01281 10.93536 23577 ft 375 kts 326°
2026-04-28 19:28 35.03531 10.91938 23092 ft 373 kts 326°
2026-04-28 19:28 35.05769 10.90347 22584 ft 372 kts 326°
2026-04-28 19:28 35.07997 10.88763 22104 ft 370 kts 326°
2026-04-28 19:29 35.10219 10.87183 21636 ft 368 kts 326°
2026-04-28 19:29 35.11678 10.86145 21321 ft 366 kts 326°
2026-04-28 19:29 35.14593 10.84068 20712 ft 364 kts 326°
2026-04-28 19:29 35.16775 10.82514 20260 ft 362 kts 326°
2026-04-28 19:30 35.18942 10.80969 19803 ft 360 kts 326°
2026-04-28 19:30 35.21104 10.79428 19350 ft 358 kts 326°
2026-04-28 19:30 35.23255 10.77891 18899 ft 357 kts 326°
2026-04-28 19:30 35.25396 10.76361 18449 ft 355 kts 326°
2026-04-28 19:31 35.27523 10.74841 18002 ft 353 kts 326°
2026-04-28 19:31 35.29648 10.73321 17581 ft 351 kts 326°
2026-04-28 19:31 35.31752 10.71816 17161 ft 349 kts 326°
2026-04-28 19:31 35.33820 10.70336 16753 ft 347 kts 326°
2026-04-28 19:32 35.35900 10.68845 16329 ft 345 kts 326°
2026-04-28 19:32 35.37966 10.67364 15891 ft 343 kts 326°
2026-04-28 19:32 35.40025 10.65887 15481 ft 341 kts 327°
2026-04-28 19:32 35.42068 10.64420 15065 ft 339 kts 326°
2026-04-28 19:33 35.44095 10.62964 14652 ft 337 kts 327°
2026-04-28 19:33 35.46111 10.61515 14233 ft 335 kts 327°
2026-04-28 19:33 35.48090 10.60092 13809 ft 333 kts 327°
2026-04-28 19:33 35.50085 10.58657 13412 ft 331 kts 327°
2026-04-28 19:34 35.52068 10.57229 12995 ft 329 kts 327°
2026-04-28 19:34 35.54042 10.55808 12583 ft 327 kts 327°
2026-04-28 19:34 35.56004 10.54393 12188 ft 325 kts 327°
2026-04-28 19:34 35.57946 10.52992 11766 ft 323 kts 327°
2026-04-28 19:35 35.59882 10.51595 11327 ft 323 kts 327°
2026-04-28 19:35 35.61823 10.50193 10831 ft 324 kts 328°
2026-04-28 19:35 35.63745 10.48804 10637 ft 315 kts 328°
2026-04-28 19:35 35.65601 10.47464 10542 ft 303 kts 328°
2026-04-28 19:36 35.67389 10.46173 10351 ft 295 kts 328°
2026-04-28 19:36 35.69149 10.44899 9861 ft 299 kts 328°
2026-04-28 19:36 35.70945 10.43597 9461 ft 299 kts 328°
2026-04-28 19:36 35.72156 10.42719 9209 ft 299 kts 328°
2026-04-28 19:37 35.74527 10.40998 8720 ft 298 kts 327°
2026-04-28 19:37 35.75121 10.40541 8598 ft 297 kts 325°
2026-04-28 19:37 35.77932 10.38141 8245 ft 293 kts 323°
2026-04-28 19:37 35.79581 10.36696 8140 ft 288 kts 323°
2026-04-28 19:38 35.80661 10.35747 8035 ft 287 kts 323°
2026-04-28 19:38 35.82280 10.34317 7787 ft 284 kts 323°
2026-04-28 19:38 35.84416 10.32421 7265 ft 286 kts 323°
2026-04-28 19:38 35.85509 10.31448 7024 ft 287 kts 323°
2026-04-28 19:39 35.87641 10.29541 6598 ft 285 kts 323°
2026-04-28 19:39 35.88724 10.28570 6387 ft 284 kts 323°
2026-04-28 19:39 35.90323 10.27133 6057 ft 284 kts 323°
2026-04-28 19:39 35.91895 10.25714 5723 ft 283 kts 323°
2026-04-28 19:40 35.93482 10.24273 5405 ft 282 kts 323°
2026-04-28 19:40 35.95054 10.22839 5146 ft 279 kts 323°
2026-04-28 19:40 35.96615 10.21406 4833 ft 279 kts 323°
2026-04-28 19:40 35.98157 10.19979 4606 ft 273 kts 323°
2026-04-28 19:41 35.99649 10.18588 4474 ft 265 kts 323°
2026-04-28 19:41 36.01127 10.17336 4326 ft 249 kts 337°
2026-04-28 19:41 36.02769 10.16910 4101 ft 236 kts
2026-04-28 19:41 36.04357 10.16966 3831 ft 226 kts 14°
2026-04-28 19:42 36.05736 10.17742 3470 ft 215 kts 49°
2026-04-28 19:42 36.06627 10.19161 3185 ft 206 kts 61°
2026-04-28 19:42 36.07319 10.20681 2842 ft 201 kts 73°
2026-04-28 19:42 36.07532 10.22358 2571 ft 193 kts 86°
2026-04-28 19:43 36.07625 10.23964 2493 ft 181 kts 89°
2026-04-28 19:43 36.07647 10.25485 2514 ft 168 kts 90°
2026-04-28 19:43 36.07646 10.26871 2390 ft 160 kts 90°
2026-04-28 19:43 36.07642 10.28204 2190 ft 148 kts 90°
2026-04-28 19:44 36.07630 10.29421 2039 ft 136 kts 90°
2026-04-28 19:44 36.07619 10.30634 1926 ft 146 kts 89°
2026-04-28 19:44 36.07621 10.31906 1786 ft 148 kts 89°
2026-04-28 19:44 36.07625 10.33155 1590 ft 142 kts 89°
2026-04-28 19:45 36.07618 10.34381 1342 ft 144 kts 90°
2026-04-28 19:45 36.07605 10.35632 1082 ft 145 kts 88°
2026-04-28 19:45 36.07608 10.36851 879 ft 142 kts 88°
2026-04-28 19:45 36.07605 10.38061 681 ft 139 kts 89°
2026-04-28 19:46 36.07589 10.39243 504 ft 136 kts 88°
2026-04-28 19:46 36.07594 10.40438 323 ft 140 kts 89°
2026-04-28 19:46 36.07585 10.41662 152 ft 146 kts 89°
2026-04-28 19:46 36.07579 10.42904 42 ft 138 kts 89°
2026-04-28 19:47 36.07577 10.43904 34 ft 86 kts 90°
2026-04-28 19:47 36.07576 10.44419 33 ft 47 kts 90°
2026-04-28 19:47 36.07599 10.44687 37 ft 23 kts 69°
2026-04-28 19:47 36.07670 10.44844 33 ft 16 kts 52°
2026-04-28 19:48 36.07732 10.44851 34 ft 8 kts 309°
2026-04-28 19:48 36.07744 10.44783 34 ft 8 kts 276°
2026-04-28 19:48 36.07747 10.44712 34 ft 8 kts 268°
2026-04-28 19:48 36.07745 10.44642 35 ft 8 kts 268°
2026-04-28 19:49 36.07744 10.44571 36 ft 9 kts 270°
2026-04-28 19:49 36.07743 10.44492 37 ft 9 kts 270°
2026-04-28 19:49 36.07743 10.44414 38 ft 9 kts 270°
2026-04-28 19:49 36.07743 10.44335 38 ft 9 kts 270°
2026-04-28 19:50 36.07743 10.44180 36 ft 9 kts 270°
2026-04-28 19:50 36.07745 10.44101 36 ft 9 kts 272°
2026-04-28 19:50 36.07747 10.44023 36 ft 9 kts 270°
2026-04-28 19:51 36.07747 10.43925 36 ft 12 kts 270°
2026-04-28 19:51 36.07757 10.43828 34 ft 11 kts 301°
2026-04-28 19:51 36.07829 10.43796 32 ft 12 kts 358°
2026-04-28 19:51 36.07910 10.43797 31 ft 12 kts
2026-04-28 19:52 36.07990 10.43798 29 ft 12 kts
2026-04-28 19:52 36.08046 10.43742 28 ft 12 kts 279°
2026-04-28 19:52 36.08045 10.43651 28 ft 8 kts 258°
2026-04-28 19:52 36.08012 10.43623 29 ft 5 kts 189°
2026-04-28 19:53 36.07991 10.43622 29 ft 2 kts 180°
2026-04-28 19:53 36.07977 10.43622 29 ft 2 kts 180°
2026-04-28 19:53 36.07963 10.43622 29 ft 2 kts 181°
2026-04-28 19:53 36.07953 10.43622 29 ft 0 kts 181°